Location: Eschentzwiller
(47.7125°N, 7.3981°E)
Time: 01:16:43
(UTC+00:00)

Helios 1A Rocket - Pass Details

Date: 27 October 2020
Orbit: 562 x 587 km, 98.3° (Epoch: 26 November)

Event Time Altitude Azimuth Distance (km) Brightness Sun altitude
Rises 17:06:50 0° 141° (SE) 2,797 6.1 -8.4°
Reaches altitude 10° 17:09:07 10° 132° (SE) 1,899 5.2 -8.8°
Maximum altitude 17:12:50 34° 68° (ENE) 971 3.6 -9.4°
Drops below altitude 10° 17:16:33 10° 3° (N) 1,900 5.4 -10.0°
Sets 17:18:50 0° 354° (N) 2,799 6.4 -10.4°
